Weather History for Marion Regional, IL

Change the Weather History Date:

Saturday, February 9, 2013

  Actual Average Record
Temperature  
Mean Temperature 40 °F -  
Max Temperature 48 °F 34 °F 69 °F (2009)
Min Temperature 32 °F 16 °F -8 °F (1979)
Degree Days  
Heating Degree Days 25    
Moisture  
Dew Point 30 °F    
Average Humidity 75    
Maximum Humidity 87    
Minimum Humidity 46    
Precipitation  
Precipitation 0.04 in - - ()
Sea Level Pressure  
Sea Level Pressure 30.26 in    
Wind  
Wind Speed 5 mph (East)    
Max Wind Speed 12 mph    
Max Gust Speed -    
Visibility 12 miles    
Events Rain    
Averages and records for this station are not official NWS values.
T = Trace of Precipitation, MM = Missing Value Source: NWS Daily Summary

Daily Weather History Graph

Daily Weather History Graph

Search for Another Location

Airport:

Trip Planner

Search our weather history database for the weather conditions in past years. The results will help you decide how hot, cold, wet, or windy it might be!

Date:

Astronomy

Feb. 09, 2013 Rise Set
Actual Time 6:52 AM CST 5:28 PM CST
Civil Twilight 6:24 AM CST 5:56 PM CST
Nautical Twilight 5:53 AM CST 6:27 PM CST
Astronomical Twilight 5:23 AM CST 6:57 PM CST
Moon 6:03 AM CST (2/9) 5:10 PM CST (2/9)
Length of Visible Light 11h 31m
Length of Day
10h 36m
Waning Crescent, 0% of the Moon is Illuminated
Feb 9
Waning Crescent
Feb 10
New
Feb 17
First Quarter
Feb 25
Full
Mar 4
Last Quarter

Hourly Weather History & Observations

Time (CST) Temp. Windchill Dew Point Humidity Pressure Visibility Wind Dir Wind Speed Gust Speed Precip Events Conditions
12:15 AM 33.8 °F 29.6 °F 28.4 °F 81% 30.38 in 10.0 mi ENE 4.6 mph - N/A   Overcast
12:35 AM 32.0 °F 24.8 °F 28.4 °F 87% 30.37 in 10.0 mi NE 8.1 mph - N/A   Overcast
12:55 AM 32.0 °F 25.6 °F 28.4 °F 87% 30.37 in 10.0 mi East 6.9 mph - N/A   Overcast
1:15 AM 32.0 °F 25.6 °F 28.4 °F 87% 30.37 in 10.0 mi ENE 6.9 mph - N/A   Overcast
1:35 AM 32.0 °F 26.4 °F 28.4 °F 87% 30.37 in 10.0 mi East 5.8 mph - N/A   Overcast
1:55 AM 32.0 °F 28.7 °F 28.4 °F 87% 30.37 in 10.0 mi East 3.5 mph - N/A   Overcast
2:15 AM 32.0 °F 26.4 °F 28.4 °F 87% 30.37 in 10.0 mi East 5.8 mph - N/A   Overcast
2:35 AM 32.0 °F 25.6 °F 28.4 °F 87% 30.37 in 10.0 mi ENE 6.9 mph - N/A   Overcast
2:55 AM 32.0 °F 26.4 °F 28.4 °F 87% 30.37 in 10.0 mi ENE 5.8 mph - N/A   Overcast
3:15 AM 32.0 °F 26.4 °F 28.4 °F 87% 30.37 in 10.0 mi ENE 5.8 mph - N/A   Overcast
3:35 AM 32.0 °F 27.5 °F 28.4 °F 87% 30.37 in 10.0 mi ENE 4.6 mph - N/A   Overcast
3:55 AM 32.0 °F 26.4 °F 28.4 °F 87% 30.37 in 10.0 mi East 5.8 mph - N/A   Overcast
4:15 AM 32.0 °F 27.5 °F 28.4 °F 87% 30.39 in 10.0 mi East 4.6 mph - N/A   Overcast
4:35 AM 32.0 °F - 28.4 °F 87% 30.39 in 10.0 mi Calm Calm - N/A   Overcast
4:55 AM 32.0 °F 26.4 °F 28.4 °F 87% 30.38 in 10.0 mi East 5.8 mph - N/A   Overcast
5:15 AM 32.0 °F 28.7 °F 28.4 °F 87% 30.38 in 10.0 mi ENE 3.5 mph - N/A   Overcast
5:35 AM 32.0 °F 24.8 °F 28.4 °F 87% 30.38 in 10.0 mi ENE 8.1 mph - N/A   Overcast
6:55 AM 33.8 °F 27.0 °F 26.6 °F 75% 30.37 in 10.0 mi East 8.1 mph - N/A   Overcast
7:55 AM 33.8 °F 25.3 °F 28.4 °F 81% 30.37 in 10.0 mi SE 11.5 mph - N/A   Overcast
8:55 AM 33.8 °F 25.3 °F 26.6 °F 75% 30.38 in 10.0 mi SE 11.5 mph - N/A   Overcast
9:55 AM 35.6 °F 29.2 °F 28.4 °F 75% 30.37 in 20.0 mi SE 8.1 mph - N/A   Mostly Cloudy
11:55 AM 42.8 °F 39.3 °F 28.4 °F 57% 30.31 in 20.0 mi SE 5.8 mph - N/A   Mostly Cloudy
12:53 PM 44.6 °F 40.7 °F 28.4 °F 53% 30.28 in 20.0 mi NE 6.9 mph - N/A   Mostly Cloudy
1:53 PM 46.4 °F 44.3 °F 28.4 °F 50% 30.25 in 20.0 mi ESE 4.6 mph - N/A   Overcast
2:54 PM 46.4 °F 41.9 °F 28.4 °F 50% 30.23 in 20.0 mi SSE 9.2 mph - N/A   Overcast
3:53 PM 48.2 °F - 28.4 °F 46% 30.19 in 20.0 mi SSE 9.2 mph - N/A   Overcast
4:53 PM 46.4 °F 42.4 °F 28.4 °F 50% 30.18 in 20.0 mi SE 8.1 mph - N/A   Overcast
5:53 PM 44.6 °F 40.2 °F 28.4 °F 53% 30.16 in 20.0 mi SE 8.1 mph - N/A   Overcast
6:55 PM 42.8 °F 41.1 °F 30.2 °F 61% 30.14 in 10.0 mi East 3.5 mph - N/A   Clear
7:15 PM 42.8 °F 39.3 °F 30.2 °F 61% 30.14 in 10.0 mi East 5.8 mph - N/A   Clear
7:35 PM 42.8 °F 40.1 °F 32.0 °F 66% 30.14 in 10.0 mi East 4.6 mph - N/A   Clear
7:55 PM 42.8 °F 41.1 °F 32.0 °F 66% 30.14 in 10.0 mi ESE 3.5 mph - N/A   Clear
8:15 PM 42.8 °F - 32.0 °F 66% 30.15 in 10.0 mi Calm Calm - N/A   Clear
8:35 PM 42.8 °F - 32.0 °F 66% 30.15 in 10.0 mi Calm Calm - N/A   Clear
8:55 PM 42.8 °F - 32.0 °F 66% 30.14 in 10.0 mi Calm Calm - N/A   Scattered Clouds
9:15 PM 41.0 °F - 32.0 °F 70% 30.14 in 10.0 mi Calm Calm - N/A   Mostly Cloudy
9:35 PM 41.0 °F - 32.0 °F 70% 30.13 in 10.0 mi Calm Calm - N/A   Scattered Clouds
9:55 PM 41.0 °F - 33.8 °F 76% 30.12 in 10.0 mi Calm Calm - N/A   Unknown
10:15 PM 41.0 °F - 33.8 °F 76% 30.12 in 10.0 mi Calm Calm - N/A   Light Drizzle
10:35 PM 41.0 °F - 33.8 °F 76% 30.12 in 10.0 mi Calm Calm - N/A Rain Light Rain
10:55 PM 41.0 °F 39.0 °F 35.6 °F 81% 30.11 in 10.0 mi East 3.5 mph - N/A Rain Light Rain
11:15 PM 41.0 °F 39.0 °F 35.6 °F 81% 30.12 in 10.0 mi SE 3.5 mph - 0.01 in Rain Light Rain
11:35 PM 41.0 °F 38.0 °F 35.6 °F 81% 30.10 in 7.0 mi ESE 4.6 mph - 0.03 in Rain Light Rain
11:55 PM 41.0 °F 38.0 °F 35.6 °F 81% 30.08 in 10.0 mi East 4.6 mph - 0.04 in Rain Light Rain